星链-3720 (STARLINK-3720 )

导读

STARLINK-3720是美国SpaceX公司星链计划中的v1.5批次低轨通信卫星,于2022年3月19日发射升空,运行在约540公里高度的近地轨道,倾角53.2°,属于星链互联网星座的组成部分。它主要为全球偏远和网络覆盖不足区域提供高速低延迟宽带互联网接入,配备高性能天线与太阳能供电系统,依托星链大规模星座架构,助力增强全球互联覆盖能力,推动数字服务普惠覆盖。

Basic Information
目录编号:
52136
目录名称:
STARLINK-3720
国际标识:
2022-029BA
轨道中心:
EARTH
卫星名称:
星链-3720
卫星全名:
星链-3720 (STARLINK-3720 )
卫星状态:
在轨 (已飞行1630 天)
发射日期:
2022-03-19 UTC
国别 :
美国 (US)
星等 :
--
Orbit Information
数据来源 国际轨道数据
星历时间: 2026-09-04T14:00:02+0800
5小时前
查看轨道信息
半长轴: 6850.97km
偏心率: 0.0001855
轨道倾角: 53.160°
近地点辐角 99.758°
升交点赤经 344.591°
平近点角 57.994°
近地点: 471.562km
远地点: 474.104km
周期: 94.056分钟
每日圈数: 15.309983
Detailed Information
固有亮度:
5
最大亮度:
2.5
卫星平台:
Starlink v1.5
覆盖范围:
全球
运营商:
太空探索技术公司
运营商所在国:
美国
制造商(研发单位):
太空探索技术公司
制造商所在国:
美国
使用方式:
暂无
Satellite Introduction
星链(Starlink)计划是由太空探索技术公司(SpaceX)提出的一个巨型低轨卫星互联网星座项目,计划在2019年至2024年间在太空搭建由约1.2万颗卫星组成的“星链”网络,其中1584颗将部署在地球上空550千米处的近地轨道,并从2020年开始工作。该卫星仍在工作。
2D Orbit Map
3D Orbit Map
Orbit Altitude Analysis Chart
Orbit Inclination Analysis Chart
Orbit Comprehensive Analysis Chart
View Comprehensive Chart
Conjunction Data List
Event ID Objects TCA Miss Dist (km) Collision Risk Probability Collision Risk Index (CRI) Action
CDM_260905-132305-017105-213621
2026-09-05T
13:23:44+0000
1.686 km
极远距离
4.066744E-6 低风险 0.47
CDM_260830-140405-213606-681321
2026-08-30T
14:04:57+0000
1.746 km
极远距离
3.446128E-6 低风险 0.46
CDM_260830-132305-213606-273822
2026-08-30T
13:23:41+0000
1.882 km
极远距离
2.544532E-6 低风险 0.43
CDM_260904-222005-213606-532321
2026-09-04T
22:20:08+0000
2.224 km
极远距离
1.754871E-6 低风险 0.4
CDM_260906-045904-783205-213621
2026-09-06T
04:59:41+0000
2.338 km
极远距离
1.742939E-6 低风险 0.4
CDM_260904-112104-777005-213621
2026-09-04T
11:21:45+0000
2.341 km
极远距离
1.56371E-6 低风险 0.39
CDM_260905-005004-784505-213621
2026-09-05T
00:50:14+0000
2.501 km
极远距离
1.555624E-6 低风险 0.39
CDM_260904-205504-784505-213621
2026-09-04T
20:55:17+0000
2.543 km
极远距离
1.510991E-6 低风险 0.39
CDM_260905-153405-213606-533221
2026-09-05T
15:34:05+0000
2.441 km
极远距离
1.459851E-6 低风险 0.38
CDM_260906-010404-783205-213621
2026-09-06T
01:04:44+0000
2.706 km
极远距离
1.349619E-6 低风险 0.38